Time,TemperatureF,DewpointF,PressureIn,WindDirection,WindDirectionDegrees,WindSpeedMPH,WindSpeedGustMPH,Humidity,HourlyPrecipIn,Conditions,Clouds,dailyrainin,SoftwareType,DateUTC
2013-01-21 00:08:00,35.6,34.0,30.13,NNW,327,0.0,-999.0,92,-99.99,,,0.01,weatherlink.com 1.10,2013-01-21 05:08:00,
2013-01-21 00:23:00,35.5,33.0,30.12,NNW,327,0.0,-999.0,92,-99.99,,,0.01,weatherlink.com 1.10,2013-01-21 05:23:00,
2013-01-21 00:38:00,34.6,33.0,30.12,NNW,327,0.0,-999.0,92,-99.99,,,0.01,weatherlink.com 1.10,2013-01-21 05:38:00,
2013-01-21 00:53:00,34.5,33.0,30.12,NNW,327,0.0,-999.0,92,-99.99,,,0.01,weatherlink.com 1.10,2013-01-21 05:53:00,
2013-01-21 01:08:00,33.8,32.0,30.11,NNW,327,0.0,-999.0,93,-99.99,,,0.01,weatherlink.com 1.10,2013-01-21 06:08:00,
2013-01-21 01:23:00,33.7,32.0,30.11,NNW,327,0.0,-999.0,93,-99.99,,,0.01,weatherlink.com 1.10,2013-01-21 06:23:00,
2013-01-21 01:38:00,33.6,32.0,30.11,NNW,327,0.0,-999.0,93,-99.99,,,0.01,weatherlink.com 1.10,2013-01-21 06:38:00,
2013-01-21 01:53:00,33.0,31.0,30.11,NNW,327,0.0,-999.0,93,-99.99,,,0.01,weatherlink.com 1.10,2013-01-21 06:53:00,
2013-01-21 02:08:00,33.0,31.0,30.12,NNW,327,0.0,-999.0,93,-99.99,,,0.01,weatherlink.com 1.10,2013-01-21 07:08:00,
2013-01-21 02:23:00,32.4,31.0,30.12,NNW,327,0.0,-999.0,93,-99.99,,,0.01,weatherlink.com 1.10,2013-01-21 07:23:00,
2013-01-21 02:38:00,32.8,31.0,30.12,NNW,327,0.0,-999.0,93,-99.99,,,0.01,weatherlink.com 1.10,2013-01-21 07:38:00,
2013-01-21 02:53:00,32.8,31.0,30.12,NNW,327,0.0,-999.0,93,-99.99,,,0.01,weatherlink.com 1.10,2013-01-21 07:53:00,
2013-01-21 03:08:00,32.6,31.0,30.12,NNW,327,0.0,-999.0,93,-99.99,,,0.02,weatherlink.com 1.10,2013-01-21 08:08:00,
2013-01-21 03:23:00,32.2,30.0,30.12,NNW,327,0.0,-999.0,93,-99.99,,,0.02,weatherlink.com 1.10,2013-01-21 08:23:00,
2013-01-21 03:38:00,32.3,31.0,30.11,NNW,327,0.0,-999.0,93,-99.99,,,0.02,weatherlink.com 1.10,2013-01-21 08:38:00,
2013-01-21 03:53:00,31.6,30.0,30.11,NNW,327,0.0,-999.0,93,-99.99,,,0.02,weatherlink.com 1.10,2013-01-21 08:53:00,
2013-01-21 04:08:00,31.6,30.0,30.11,NNW,327,0.0,-999.0,93,-99.99,,,0.02,weatherlink.com 1.10,2013-01-21 09:08:00,
2013-01-21 04:23:00,31.5,30.0,30.11,NNW,327,0.0,-999.0,93,-99.99,,,0.02,weatherlink.com 1.10,2013-01-21 09:23:00,
2013-01-21 04:38:00,31.3,30.0,30.10,NNW,327,0.0,-999.0,93,-99.99,,,0.02,weatherlink.com 1.10,2013-01-21 09:38:00,
2013-01-21 04:53:00,31.3,30.0,30.10,NNW,327,0.0,-999.0,93,-99.99,,,0.02,weatherlink.com 1.10,2013-01-21 09:53:00,
2013-01-21 05:08:00,31.1,29.0,30.10,NNW,327,0.0,-999.0,93,-99.99,,,0.02,weatherlink.com 1.10,2013-01-21 10:08:00,
2013-01-21 05:23:00,30.8,29.0,30.10,NNW,327,0.0,-999.0,93,-99.99,,,0.02,weatherlink.com 1.10,2013-01-21 10:23:00,
2013-01-21 05:38:00,31.8,30.0,30.10,NNW,327,0.0,-999.0,92,-99.99,,,0.02,weatherlink.com 1.10,2013-01-21 10:38:00,
2013-01-21 05:53:00,32.7,30.0,30.10,NNW,327,0.0,-999.0,91,-99.99,,,0.02,weatherlink.com 1.10,2013-01-21 10:53:00,
2013-01-21 06:08:00,32.3,30.0,30.11,NNW,327,0.0,-999.0,92,-99.99,,,0.02,weatherlink.com 1.10,2013-01-21 11:08:00,
2013-01-21 06:23:00,31.2,29.0,30.11,NNW,327,0.0,-999.0,93,-99.99,,,0.02,weatherlink.com 1.10,2013-01-21 11:23:00,
2013-01-21 06:38:00,30.4,29.0,30.11,NNW,327,0.0,-999.0,93,-99.99,,,0.02,weatherlink.com 1.10,2013-01-21 11:38:00,
2013-01-21 06:53:00,30.3,28.0,30.11,NNW,327,0.0,-999.0,92,-99.99,,,0.02,weatherlink.com 1.10,2013-01-21 11:53:00,
2013-01-21 07:08:00,29.7,28.0,30.12,NNW,327,0.0,-999.0,93,-99.99,,,0.02,weatherlink.com 1.10,2013-01-21 12:08:00,
2013-01-21 07:23:00,31.2,29.0,30.12,NNW,327,0.0,-999.0,91,-99.99,,,0.02,weatherlink.com 1.10,2013-01-21 12:23:00,
2013-01-21 07:38:00,31.1,29.0,30.13,NNW,327,0.0,-999.0,91,-99.99,,,0.02,weatherlink.com 1.10,2013-01-21 12:38:00,
2013-01-21 07:53:00,30.6,29.0,30.13,NNW,327,0.0,-999.0,92,-99.99,,,0.02,weatherlink.com 1.10,2013-01-21 12:53:00,
2013-01-21 08:08:00,30.1,28.0,30.14,North,360,0.0,-999.0,92,-99.99,,,0.02,weatherlink.com 1.10,2013-01-21 13:08:00,
2013-01-21 08:23:00,30.7,29.0,30.15,North,360,0.0,-999.0,92,-99.99,,,0.02,weatherlink.com 1.10,2013-01-21 13:23:00,
2013-01-21 08:38:00,33.0,31.0,30.16,North,360,2.0,-999.0,91,-99.99,,,0.02,weatherlink.com 1.10,2013-01-21 13:38:00,
2013-01-21 08:53:00,33.3,31.0,30.15,NNE,13,3.0,-999.0,91,-99.99,,,0.02,weatherlink.com 1.10,2013-01-21 13:53:00,
2013-01-21 09:08:00,34.1,32.0,30.16,North,5,3.0,-999.0,92,-99.99,,,0.02,weatherlink.com 1.10,2013-01-21 14:08:00,
2013-01-21 09:23:00,35.2,33.0,30.17,NNE,22,6.0,-999.0,91,-99.99,,,0.02,weatherlink.com 1.10,2013-01-21 14:23:00,
2013-01-21 09:38:00,36.2,34.0,30.18,North,355,3.0,-999.0,90,-99.99,,,0.04,weatherlink.com 1.10,2013-01-21 14:38:00,
2013-01-21 09:53:00,37.3,33.0,30.20,NNW,327,6.0,-999.0,85,-99.99,,,0.04,weatherlink.com 1.10,2013-01-21 14:53:00,
2013-01-21 10:08:00,38.5,32.0,30.20,North,355,10.0,-999.0,76,-99.99,,,0.05,weatherlink.com 1.10,2013-01-21 15:08:00,
2013-01-21 10:23:00,38.8,29.0,30.21,NNE,26,7.0,-999.0,67,-99.99,,,0.06,weatherlink.com 1.10,2013-01-21 15:23:00,
2013-01-21 10:39:00,39.3,29.0,30.21,NNE,27,13.0,-999.0,66,-99.99,,,0.06,weatherlink.com 1.10,2013-01-21 15:39:00,
2013-01-21 10:54:00,39.6,27.0,30.21,NNE,15,13.0,-999.0,62,-99.99,,,0.07,weatherlink.com 1.10,2013-01-21 15:54:00,
2013-01-21 11:09:00,39.7,25.0,30.21,NNE,32,12.0,-999.0,57,-99.99,,,0.08,weatherlink.com 1.10,2013-01-21 16:09:00,
2013-01-21 11:24:00,39.8,26.0,30.21,NNE,19,8.0,-999.0,58,-99.99,,,0.08,weatherlink.com 1.10,2013-01-21 16:24:00,
2013-01-21 11:39:00,40.3,25.0,30.21,NE,46,12.0,-999.0,55,-99.99,,,0.08,weatherlink.com 1.10,2013-01-21 16:39:00,
2013-01-21 11:54:00,40.6,25.0,30.21,North,360,13.0,-999.0,55,-99.99,,,0.09,weatherlink.com 1.10,2013-01-21 16:54:00,
2013-01-21 12:09:00,40.8,25.0,30.20,NNE,22,13.0,-999.0,53,-99.99,,,0.09,weatherlink.com 1.10,2013-01-21 17:09:00,
2013-01-21 12:24:00,41.4,24.0,30.20,North,355,10.0,-999.0,51,-99.99,,,0.09,weatherlink.com 1.10,2013-01-21 17:24:00,
2013-01-21 12:39:00,41.6,24.0,30.19,North,355,7.0,-999.0,50,-99.99,,,0.10,weatherlink.com 1.10,2013-01-21 17:39:00,
2013-01-21 12:54:00,42.5,23.0,30.19,NNE,24,11.0,-999.0,47,-99.99,,,0.10,weatherlink.com 1.10,2013-01-21 17:54:00,
2013-01-21 13:09:00,42.2,22.0,30.18,North,5,12.0,-999.0,45,-99.99,,,0.10,weatherlink.com 1.10,2013-01-21 18:09:00,
2013-01-21 13:24:00,42.3,24.0,30.18,North,5,11.0,-999.0,48,-99.99,,,0.10,weatherlink.com 1.10,2013-01-21 18:24:00,
2013-01-21 13:39:00,42.2,24.0,30.19,NNE,16,15.0,-999.0,48,-99.99,,,0.10,weatherlink.com 1.10,2013-01-21 18:39:00,
2013-01-21 13:54:00,42.4,22.0,30.19,North,5,11.0,-999.0,45,-99.99,,,0.11,weatherlink.com 1.10,2013-01-21 18:54:00,
2013-01-21 14:09:00,42.7,23.0,30.19,North,5,16.0,-999.0,45,-99.99,,,0.11,weatherlink.com 1.10,2013-01-21 19:09:00,
2013-01-21 14:24:00,42.7,21.0,30.18,North,350,11.0,-999.0,43,-99.99,,,0.11,weatherlink.com 1.10,2013-01-21 19:24:00,
2013-01-21 14:39:00,42.9,22.0,30.17,ENE,71,5.0,-999.0,44,-99.99,,,0.12,weatherlink.com 1.10,2013-01-21 19:39:00,
2013-01-21 14:54:00,43.8,22.0,30.17,NNE,13,5.0,-999.0,43,-99.99,,,0.12,weatherlink.com 1.10,2013-01-21 19:54:00,
2013-01-21 15:09:00,44.3,22.0,30.17,North,5,8.0,-999.0,41,-99.99,,,0.12,weatherlink.com 1.10,2013-01-21 20:09:00,
2013-01-21 15:24:00,44.7,22.0,30.17,NNE,28,3.0,-999.0,40,-99.99,,,0.12,weatherlink.com 1.10,2013-01-21 20:24:00,
2013-01-21 15:39:00,45.1,22.0,30.17,North,360,4.0,-999.0,40,-99.99,,,0.12,weatherlink.com 1.10,2013-01-21 20:39:00,
2013-01-21 15:54:00,45.4,22.0,30.17,NNW,342,7.0,-999.0,40,-99.99,,,0.12,weatherlink.com 1.10,2013-01-21 20:54:00,
2013-01-21 16:39:00,45.0,22.0,30.18,North,355,7.0,-999.0,40,-99.99,,,0.13,weatherlink.com 1.10,2013-01-21 21:39:00,
2013-01-21 16:54:00,44.7,21.0,30.18,NNW,329,6.0,-999.0,39,-99.99,,,0.13,weatherlink.com 1.10,2013-01-21 21:54:00,
2013-01-21 17:09:00,44.3,20.0,30.18,North,360,8.0,-999.0,38,-99.99,,,0.13,weatherlink.com 1.10,2013-01-21 22:09:00,
2013-01-21 17:24:00,43.8,20.0,30.19,North,350,9.0,-999.0,39,-99.99,,,0.14,weatherlink.com 1.10,2013-01-21 22:24:00,
2013-01-21 17:39:00,43.0,19.0,30.19,North,5,6.0,-999.0,39,-99.99,,,0.00,weatherlink.com 1.10,2013-01-21 22:39:00,
2013-01-21 17:54:00,42.2,20.0,30.19,NNW,346,4.0,-999.0,42,-99.99,,,0.00,weatherlink.com 1.10,2013-01-21 22:54:00,
2013-01-21 18:09:00,41.8,20.0,30.19,NNW,344,4.0,-999.0,42,-99.99,,,0.00,weatherlink.com 1.10,2013-01-21 23:09:00,
2013-01-21 18:24:00,41.0,20.0,30.19,NW,320,3.0,-999.0,44,-99.99,,,0.00,weatherlink.com 1.10,2013-01-21 23:24:00,
2013-01-21 18:39:00,40.4,20.0,30.20,NNW,327,0.0,-999.0,45,-99.99,,,0.00,weatherlink.com 1.10,2013-01-21 23:39:00,
2013-01-21 18:54:00,39.7,21.0,30.20,NNW,327,0.0,-999.0,47,-99.99,,,0.00,weatherlink.com 1.10,2013-01-21 23:54:00,
2013-01-21 19:09:00,38.5,21.0,30.20,NNW,327,0.0,-999.0,49,-99.99,,,0.00,weatherlink.com 1.10,2013-01-22 00:09:00,
2013-01-21 19:24:00,38.0,21.0,30.21,NNW,327,3.0,-999.0,50,-99.99,,,0.00,weatherlink.com 1.10,2013-01-22 00:24:00,
2013-01-21 19:39:00,38.1,21.0,30.21,NNW,338,2.0,-999.0,50,-99.99,,,0.00,weatherlink.com 1.10,2013-01-22 00:39:00,
2013-01-21 19:54:00,37.8,21.0,30.21,North,355,4.0,-999.0,52,-99.99,,,0.01,weatherlink.com 1.10,2013-01-22 00:54:00,
2013-01-21 20:09:00,37.3,22.0,30.21,North,355,3.0,-999.0,54,-99.99,,,0.01,weatherlink.com 1.10,2013-01-22 01:09:00,
2013-01-21 20:24:00,37.1,21.0,30.21,North,355,1.0,-999.0,53,-99.99,,,0.01,weatherlink.com 1.10,2013-01-22 01:24:00,
2013-01-21 20:39:00,36.7,21.0,30.21,North,5,3.0,-999.0,54,-99.99,,,0.01,weatherlink.com 1.10,2013-01-22 01:39:00,
2013-01-21 20:54:00,36.4,21.0,30.21,North,355,4.0,-999.0,54,-99.99,,,0.01,weatherlink.com 1.10,2013-01-22 01:54:00,
2013-01-21 21:09:00,36.2,20.0,30.21,North,355,3.0,-999.0,53,-99.99,,,0.01,weatherlink.com 1.10,2013-01-22 02:09:00,
2013-01-21 21:24:00,36.1,20.0,30.22,NNW,334,6.0,-999.0,52,-99.99,,,0.01,weatherlink.com 1.10,2013-01-22 02:24:00,
2013-01-21 21:40:00,35.7,19.0,30.22,North,355,8.0,-999.0,52,-99.99,,,0.01,weatherlink.com 1.10,2013-01-22 02:40:00,
2013-01-21 21:55:00,35.5,20.0,30.22,North,355,3.0,-999.0,53,-99.99,,,0.02,weatherlink.com 1.10,2013-01-22 02:55:00,
2013-01-21 22:10:00,35.2,19.0,30.23,North,5,5.0,-999.0,53,-99.99,,,0.02,weatherlink.com 1.10,2013-01-22 03:10:00,
2013-01-21 22:25:00,34.7,19.0,30.23,North,355,7.0,-999.0,54,-99.99,,,0.02,weatherlink.com 1.10,2013-01-22 03:25:00,
2013-01-21 22:40:00,34.3,20.0,30.23,NNW,334,2.0,-999.0,55,-99.99,,,0.02,weatherlink.com 1.10,2013-01-22 03:40:00,
2013-01-21 22:55:00,33.7,19.0,30.23,North,355,9.0,-999.0,56,-99.99,,,0.02,weatherlink.com 1.10,2013-01-22 03:55:00,
2013-01-21 23:10:00,33.5,20.0,30.23,NNE,13,5.0,-999.0,57,-99.99,,,0.02,weatherlink.com 1.10,2013-01-22 04:10:00,
2013-01-21 23:25:00,33.1,19.0,30.23,NNE,15,6.0,-999.0,57,-99.99,,,0.02,weatherlink.com 1.10,2013-01-22 04:25:00,
2013-01-21 23:40:00,32.8,19.0,30.23,North,355,3.0,-999.0,58,-99.99,,,0.02,weatherlink.com 1.10,2013-01-22 04:40:00,
2013-01-21 23:55:00,32.6,19.0,30.23,NNW,348,0.0,-999.0,58,-99.99,,,0.02,weatherlink.com 1.10,2013-01-22 04:55:00,